Farmville, Virginia, United States (23901)
Lat: 37.30N, Lon: 78.39W
Wx Zone: VAZ060
Local Info
Past Weather Observations for Today

NOTE: This archive is for the closest National Weather Service station to Farmville. Information may differ from the station used for current weather conditions.

Click here for Long-term Archive

Time Weather Temperature Dewpoint Humidity Pressure Winds Precip Visibility
22:15
Partly Cloudy
70°F / 21°C 70°F / 21°C 100% 30.12 in
(1020 mb)
Calm - 10SM
21:55
Mostly Cloudy
70°F / 21°C 70°F / 21°C 100% 30.12 in
(1020 mb)
NNE 4.6 mph
(NNE 7 kph)
- 10SM
21:35
Partly Cloudy
70°F / 21°C 70°F / 21°C 100% 30.12 in
(1020 mb)
Calm - 10SM
21:15
Clear
70°F / 21°C 70°F / 21°C 100% 30.09 in
(1019 mb)
NNE 4.6 mph
(NNE 7 kph)
- 10SM
20:55
Clear
72°F / 22°C 66°F / 19°C 83% 30.09 in
(1019 mb)
NNE 4.6 mph
(NNE 7 kph)
- 10SM
20:35
Clear
72°F / 22°C 66°F / 19°C 83% 30.09 in
(1019 mb)
NNE 5.8 mph
(NNE 9 kph)
- 10SM
20:15
Clear
72°F / 22°C 66°F / 19°C 83% 30.09 in
(1019 mb)
NNE 6.9 mph
(NNE 11 kph)
- 10SM
19:55
Clear
72°F / 22°C 66°F / 19°C 83% 30.06 in
(1018 mb)
NNE 4.6 mph
(NNE 7 kph)
- 10SM
19:35
Clear
73°F / 23°C 64°F / 18°C 74% 30.06 in
(1018 mb)
NE 3.5 mph
(NE 6 kph)
- 10SM
19:15
Clear
73°F / 23°C 66°F / 19°C 78% 30.06 in
(1018 mb)
Calm - 10SM
18:55
Clear
73°F / 23°C 66°F / 19°C 78% 30.04 in
(1017 mb)
Calm - 10SM
18:35
Clear
75°F / 24°C 64°F / 18°C 69% 30.04 in
(1017 mb)
Calm - 10SM
18:15
Partly Cloudy
75°F / 24°C 66°F / 19°C 74% 30.04 in
(1017 mb)
NNE 3.5 mph
(NNE 6 kph)
- 10SM
17:55
Mostly Cloudy
Thunder Storms
75°F / 24°C 66°F / 19°C 74% 30.06 in
(1018 mb)
N 3.5 mph
(N 6 kph)
- 10SM
17:35
Mostly Cloudy
Light Rain
75°F / 24°C 68°F / 20°C 78% 30.06 in
(1018 mb)
N 6.9 mph
(N 11 kph)
- 10SM
17:15
Mostly Cloudy
Drizzle
75°F / 24°C 66°F / 19°C 74% 30.04 in
(1017 mb)
Calm - 10SM
16:55
Mostly Cloudy
77°F / 25°C 66°F / 19°C 69% 30.04 in
(1017 mb)
Calm - 10SM
16:35
Partly Cloudy
Light Rain
77°F / 25°C 64°F / 18°C 65% 30.04 in
(1017 mb)
Calm - 10SM
16:15
Partly Cloudy
Thunder Storms
77°F / 25°C 64°F / 18°C 65% 30.04 in
(1017 mb)
Calm - 10SM
15:55
Partly Cloudy
Thunder Storms
77°F / 25°C 64°F / 18°C 65% 30.04 in
(1017 mb)
S 3.5 mph
(S 6 kph)
- 10SM
15:35
Mostly Cloudy
Thunder Storms
79°F / 26°C 64°F / 18°C 61% 30.04 in
(1017 mb)
SSE 3.5 mph
(SSE 6 kph)
- 10SM
15:15
Partly Cloudy
Thunder Storms
82°F / 28°C 64°F / 18°C 55% 30.01 in
(1016 mb)
SE 9.2 mph
(SE 15 kph)
- 10SM
14:55
Clear
Thunder Storms
82°F / 28°C 68°F / 20°C 62% 30.01 in
(1016 mb)
Calm - 10SM
14:35
Partly Cloudy
Thunder Storms
84°F / 29°C 68°F / 20°C 58% 30.01 in
(1016 mb)
Calm - 10SM
14:15
Mostly Cloudy
Thunder Storms
84°F / 29°C 66°F / 19°C 55% 30.01 in
(1016 mb)
SW 4.6 mph
(SW 7 kph)
- 10SM
13:55
Overcast
Thunder Storms
86°F / 30°C 66°F / 19°C 52% 30.01 in
(1016 mb)
NE 6.9 mph
(NE 11 kph)
- 10SM
13:35
Mostly Cloudy
Thunder Storms
91°F / 33°C 66°F / 19°C 44% 29.98 in
(1015 mb)
ENE 6.9 mph
(ENE 11 kph)
- 10SM
13:15
Mostly Cloudy
90°F / 32°C 66°F / 19°C 46% 29.98 in
(1015 mb)
NE 8.1 mph
(NE 13 kph)
- 10SM
12:55
Partly Cloudy
91°F / 33°C 66°F / 19°C 44% 29.98 in
(1015 mb)
ENE 3.5 mph
(ENE 6 kph)
- 10SM
12:35
Partly Cloudy
Thunder Storms
90°F / 32°C 68°F / 20°C 49% 30.01 in
(1016 mb)
NE 4.6 mph
(NE 7 kph)
- 10SM
12:15
Partly Cloudy
90°F / 32°C 68°F / 20°C 49% 30.01 in
(1016 mb)
NNE 8.1 mph
(NNE 13 kph)
- 10SM
11:55
Clear
91°F / 33°C 68°F / 20°C 46% 30.01 in
(1016 mb)
NE 4.6 mph
(NE 7 kph)
- 10SM
11:35
Clear
90°F / 32°C 66°F / 19°C 46% 30.01 in
(1016 mb)
N 8.1 mph
(N 13 kph)
- 10SM
11:15
Clear
90°F / 32°C 68°F / 20°C 49% 30.01 in
(1016 mb)
NE 9.2 mph
(NE 15 kph)
- 10SM
10:55
Clear
88°F / 31°C 68°F / 20°C 52% 30.04 in
(1017 mb)
NNE 3.5 mph
(NNE 6 kph)
- 10SM
10:35
Clear
88°F / 31°C 68°F / 20°C 52% 30.04 in
(1017 mb)
N 8.1 mph
(N 13 kph)
- 10SM
10:15
Partly Cloudy
86°F / 30°C 68°F / 20°C 55% 30.04 in
(1017 mb)
NNE 5.8 mph
(NNE 9 kph)
- 10SM
09:55
Clear
86°F / 30°C 68°F / 20°C 55% 30.01 in
(1016 mb)
NNE 10.4 mph
(NNE 17 kph)
- 10SM
09:35
Clear
84°F / 29°C 68°F / 20°C 58% 30.01 in
(1016 mb)
NE 6.9 mph
(NE 11 kph)
- 10SM
09:15
Clear
82°F / 28°C 68°F / 20°C 62% 30.01 in
(1016 mb)
NE 8.1 mph
(NE 13 kph)
- 10SM
08:55
Clear
82°F / 28°C 68°F / 20°C 62% 30.01 in
(1016 mb)
NE 5.8 mph
(NE 9 kph)
- 10SM
08:35
Clear
82°F / 28°C 68°F / 20°C 62% 30.01 in
(1016 mb)
N 4.6 mph
(N 7 kph)
- 10SM
08:15
Clear
81°F / 27°C 68°F / 20°C 66% 30.01 in
(1016 mb)
N 3.5 mph
(N 6 kph)
- 10SM
07:55
Clear
81°F / 27°C 68°F / 20°C 66% 30.01 in
(1016 mb)
Calm - 10SM
07:35
Clear
77°F / 25°C 72°F / 22°C 83% 30.01 in
(1016 mb)
Calm - 10SM
07:15
Clear
75°F / 24°C 73°F / 23°C 94% 30.01 in
(1016 mb)
Calm - 7SM
06:55
Clear
Fog And Mist
72°F / 22°C 72°F / 22°C 100% 29.98 in
(1015 mb)
Calm - 4SM
06:35
Clear
Fog And Mist
70°F / 21°C 70°F / 21°C 100% 29.98 in
(1015 mb)
Calm - 3SM
06:15
Obscured
Fog And Mist
66°F / 19°C 66°F / 19°C 100% 29.98 in
(1015 mb)
Calm - 1SM
05:55
Obscured
Fog And Mist
68°F / 20°C 68°F / 20°C 100% 29.98 in
(1015 mb)
Calm - 3/4SM
05:35
Clear
Fog And Mist
68°F / 20°C 68°F / 20°C 100% 29.95 in
(1014 mb)
Calm - 2 1/2SM
05:15
Clear
Fog And Mist
68°F / 20°C 68°F / 20°C 100% 29.95 in
(1014 mb)
Calm - 2SM
04:55
Clear
Fog And Mist
68°F / 20°C 68°F / 20°C 100% 29.95 in
(1014 mb)
Calm - 2SM
04:35
Clear
Fog And Mist
68°F / 20°C 68°F / 20°C 100% 29.95 in
(1014 mb)
Calm - 4SM
04:15
Clear
Fog And Mist
68°F / 20°C 68°F / 20°C 100% 29.95 in
(1014 mb)
Calm - 3SM
03:55
Clear
Fog And Mist
68°F / 20°C 68°F / 20°C 100% 29.95 in
(1014 mb)
Calm - 5SM
03:35
Clear
Fog And Mist
68°F / 20°C 68°F / 20°C 100% 29.95 in
(1014 mb)
Calm - 5SM
03:15
Clear
Fog And Mist
68°F / 20°C 68°F / 20°C 100% 29.95 in
(1014 mb)
Calm - 3SM
02:55
Clear
Fog And Mist
68°F / 20°C 68°F / 20°C 100% 29.95 in
(1014 mb)
Calm - 4SM
02:35
Clear
Fog And Mist
68°F / 20°C 68°F / 20°C 100% 29.92 in
(1013 mb)
Calm - 5SM
02:15
Clear
72°F / 22°C 70°F / 21°C 94% 29.92 in
(1013 mb)
Calm - 7SM
01:55
Clear
Fog And Mist
70°F / 21°C 70°F / 21°C 100% 29.92 in
(1013 mb)
Calm - 5SM
01:35
Clear
Fog And Mist
70°F / 21°C 70°F / 21°C 100% 29.92 in
(1013 mb)
Calm - 5SM
01:15
Clear
70°F / 21°C 70°F / 21°C 100% 29.92 in
(1013 mb)
Calm - 7SM
00:55
Clear
70°F / 21°C 70°F / 21°C 100% 29.92 in
(1013 mb)
Calm - 7SM
00:35
Clear
70°F / 21°C 70°F / 21°C 100% 29.92 in
(1013 mb)
Calm - 7SM
00:15
Clear
70°F / 21°C 70°F / 21°C 100% 29.92 in
(1013 mb)
Calm - 7SM
Time Weather Temperature Dewpoint Humidity Pressure Winds Precip Visibility


Weather for websites

WeatherForYou.com, LLC is not responsible for any damages or problems caused by this service. Current weather conditions are obtained from the closest station including government and personal stations which may have varying degrees of accuracy. Weather forecasts are derived from the NOAA NDFD. Like all things, this site belongs to Jesus Christ... He just trusts us to maintain it. If you have any questions or comments email webmaster@weatherforyou.com

Copyright © 2015, WeatherForYou.com LLC. All rights reserved.